Time,TemperatureF,DewpointF,PressureIn,WindDirection,WindDirectionDegrees,WindSpeedMPH,WindSpeedGustMPH,Humidity,HourlyPrecipIn,Conditions,Clouds,dailyrainin,SoftwareType,DateUTC
2013-04-16 00:00:00,29.4,15.2,30.14,WNW,293,2.0,3.0,55,0.00,,,0.00,Wunderground v.1.15,2013-04-16 06:00:00,
2013-04-16 00:30:00,29.4,16.0,30.13,NW,311,1.0,1.0,57,0.00,,,0.00,Wunderground v.1.15,2013-04-16 06:30:00,
2013-04-16 01:00:00,28.1,14.8,30.13,NNW,345,0.0,2.0,57,0.00,,,0.00,Wunderground v.1.15,2013-04-16 07:00:00,
2013-04-16 01:30:00,26.4,16.9,30.15,North,360,0.0,0.0,67,0.00,,,0.00,Wunderground v.1.15,2013-04-16 07:30:00,
2013-04-16 02:00:00,26.1,15.6,30.16,North,355,0.0,0.0,64,0.00,,,0.00,Wunderground v.1.15,2013-04-16 08:00:00,
2013-04-16 02:30:00,25.3,16.5,30.17,East,97,0.0,0.0,69,0.00,,,0.00,Wunderground v.1.15,2013-04-16 08:30:00,
2013-04-16 03:00:00,24.5,16.8,30.17,SE,141,0.0,0.0,72,0.00,,,0.00,Wunderground v.1.15,2013-04-16 09:00:00,
2013-04-16 03:30:00,24.1,16.7,30.17,SW,226,0.0,0.0,73,0.00,,,0.00,Wunderground v.1.15,2013-04-16 09:30:00,
2013-04-16 04:00:00,23.9,16.8,30.18,NW,313,0.0,0.0,74,0.00,,,0.00,Wunderground v.1.15,2013-04-16 10:00:00,
2013-04-16 04:30:00,23.8,16.1,30.19,NW,313,0.0,0.0,72,0.00,,,0.00,Wunderground v.1.15,2013-04-16 10:30:00,
2013-04-16 05:00:00,23.3,15.6,30.19,WNW,297,0.0,0.0,72,0.00,,,0.00,Wunderground v.1.15,2013-04-16 11:00:00,
2013-04-16 05:30:00,23.8,16.7,30.20,WNW,291,0.0,0.0,74,0.00,,,0.00,Wunderground v.1.15,2013-04-16 11:30:00,
2013-04-16 06:00:00,24.2,17.7,30.19,WNW,291,0.0,0.0,76,0.00,,,0.00,Wunderground v.1.15,2013-04-16 12:00:00,
2013-04-16 06:30:00,24.2,17.4,30.20,NW,305,0.0,0.0,75,0.00,,,0.00,Wunderground v.1.15,2013-04-16 12:30:00,
2013-04-16 07:00:00,25.3,16.9,30.21,WNW,289,0.0,0.0,70,0.00,,,0.00,Wunderground v.1.15,2013-04-16 13:00:00,
2013-04-16 07:30:00,26.7,17.9,30.21,West,281,0.0,0.0,69,0.00,,,0.00,Wunderground v.1.15,2013-04-16 13:30:00,
2013-04-16 08:00:00,27.3,16.7,30.22,North,10,0.0,0.0,64,0.00,,,0.00,Wunderground v.1.15,2013-04-16 14:00:00,
2013-04-16 08:30:00,27.2,17.0,30.23,NNE,29,3.0,4.0,65,0.00,,,0.00,Wunderground v.1.15,2013-04-16 14:30:00,
2013-04-16 09:00:00,26.6,18.5,30.22,North,5,3.0,3.0,71,0.00,,,0.00,Wunderground v.1.15,2013-04-16 15:00:00,
2013-04-16 09:30:00,26.6,19.1,30.22,NE,43,3.0,3.0,73,0.00,,,0.00,Wunderground v.1.15,2013-04-16 15:30:00,
2013-04-16 10:00:00,26.4,20.5,30.23,North,351,1.0,2.0,78,0.00,,,0.00,Wunderground v.1.15,2013-04-16 16:00:00,
2013-04-16 10:30:00,26.0,21.5,30.24,NNE,32,2.0,2.0,83,0.00,,,0.00,Wunderground v.1.15,2013-04-16 16:30:00,
2013-04-16 11:00:00,26.1,22.2,30.24,NE,47,2.0,2.0,85,0.00,,,0.00,Wunderground v.1.15,2013-04-16 17:00:00,
2013-04-16 11:30:00,26.1,22.2,30.24,ENE,67,4.0,5.0,85,0.00,,,0.00,Wunderground v.1.15,2013-04-16 17:30:00,
2013-04-16 12:00:00,26.4,22.2,30.25,ENE,67,3.0,5.0,84,0.00,,,0.01,Wunderground v.1.15,2013-04-16 18:00:00,
2013-04-16 12:30:00,27.5,23.0,30.23,NNE,27,4.0,4.0,83,0.00,,,0.02,Wunderground v.1.15,2013-04-16 18:30:00,
2013-04-16 13:00:00,27.0,22.5,30.23,NE,43,4.0,4.0,83,0.00,,,0.03,Wunderground v.1.15,2013-04-16 19:00:00,
2013-04-16 13:30:00,27.5,22.7,30.23,ENE,70,3.0,3.0,82,0.00,,,0.03,Wunderground v.1.15,2013-04-16 19:30:00,
2013-04-16 14:00:00,28.2,22.8,30.23,ENE,64,2.0,5.0,80,0.00,,,0.04,Wunderground v.1.15,2013-04-16 20:00:00,
2013-04-16 14:30:00,27.6,23.1,30.23,ENE,74,4.0,4.0,83,0.00,,,0.04,Wunderground v.1.15,2013-04-16 20:30:00,
2013-04-16 15:00:00,27.8,23.6,30.23,NE,56,3.0,3.0,84,0.00,,,0.05,Wunderground v.1.15,2013-04-16 21:00:00,
2013-04-16 15:30:00,27.6,23.7,30.23,NNE,20,3.0,5.0,85,0.00,,,0.05,Wunderground v.1.15,2013-04-16 21:30:00,
2013-04-16 16:00:00,27.3,23.7,30.23,ENE,60,3.0,3.0,86,0.00,,,0.05,Wunderground v.1.15,2013-04-16 22:00:00,
2013-04-16 16:30:00,27.0,23.4,30.23,ENE,74,2.0,3.0,86,0.00,,,0.05,Wunderground v.1.15,2013-04-16 22:30:00,
2013-04-16 17:00:00,27.2,23.8,30.24,ENE,65,2.0,2.0,87,0.00,,,0.06,Wunderground v.1.15,2013-04-16 23:00:00,
2013-04-16 17:30:00,27.6,24.5,30.25,NE,41,0.0,0.0,88,0.00,,,0.06,Wunderground v.1.15,2013-04-16 23:30:00,
2013-04-16 18:00:00,27.8,25.0,30.25,NE,47,0.0,0.0,89,0.00,,,0.06,Wunderground v.1.15,2013-04-17 00:00:00,
2013-04-16 18:30:00,27.6,24.8,30.27,NE,47,0.0,0.0,89,0.00,,,0.06,Wunderground v.1.15,2013-04-17 00:30:00,
2013-04-16 19:00:00,27.0,24.2,30.27,NE,47,0.0,0.0,89,0.00,,,0.06,Wunderground v.1.15,2013-04-17 01:00:00,
2013-04-16 19:30:00,26.9,24.1,30.27,NE,47,0.0,0.0,89,0.00,,,0.06,Wunderground v.1.15,2013-04-17 01:30:00,
2013-04-16 20:00:00,26.6,24.1,30.27,NE,47,0.0,0.0,90,0.00,,,0.06,Wunderground v.1.15,2013-04-17 02:00:00,
2013-04-16 20:30:00,26.6,24.1,30.29,NE,47,0.0,0.0,90,0.00,,,0.06,Wunderground v.1.15,2013-04-17 02:30:00,
2013-04-16 21:00:00,26.6,24.1,30.30,NNW,345,0.0,0.0,90,0.00,,,0.06,Wunderground v.1.15,2013-04-17 03:00:00,
2013-04-16 21:30:00,26.6,24.1,30.30,North,349,0.0,0.0,90,0.00,,,0.06,Wunderground v.1.15,2013-04-17 03:30:00,
2013-04-16 22:00:00,26.7,24.2,30.33,NW,322,0.0,0.0,90,0.00,,,0.06,Wunderground v.1.15,2013-04-17 04:00:00,
2013-04-16 22:30:00,26.7,24.2,30.30,NNW,340,0.0,0.0,90,0.00,,,0.06,Wunderground v.1.15,2013-04-17 04:30:00,
2013-04-16 23:00:00,26.7,24.2,30.31,NNW,335,0.0,0.0,90,0.00,,,0.06,Wunderground v.1.15,2013-04-17 05:00:00,
2013-04-16 23:30:00,26.6,24.1,30.31,NW,316,0.0,0.0,90,0.00,,,0.06,Wunderground v.1.15,2013-04-17 05:30:00,